Time,TemperatureF,DewpointF,PressureIn,WindDirection,WindDirectionDegrees,WindSpeedMPH,WindSpeedGustMPH,Humidity,HourlyPrecipIn,Conditions,Clouds,dailyrainin,SoftwareType,DateUTC
2013-04-30 00:05:00,72.7,63.2,29.53,SSE,160,15.0,42.0,72,0.00,,---,0.00,VWS V14.01,2013-04-30 05:05:00,
2013-04-30 00:35:00,73.1,63.2,29.52,South,184,12.0,39.0,71,0.00,,---,0.00,VWS V14.01,2013-04-30 05:35:00,
2013-04-30 01:05:00,73.0,63.0,29.53,SSW,195,21.0,36.0,71,0.00,,---,0.00,VWS V14.01,2013-04-30 06:05:00,
2013-04-30 01:35:00,72.4,62.5,29.53,South,184,12.0,39.0,71,0.00,,---,0.00,VWS V14.01,2013-04-30 06:35:00,
2013-04-30 02:05:00,70.4,62.1,29.53,South,184,9.0,36.0,75,0.05,,---,0.05,VWS V14.01,2013-04-30 07:05:00,
2013-04-30 02:35:00,70.8,61.3,29.53,SSE,154,18.0,30.0,72,0.05,,---,0.05,VWS V14.01,2013-04-30 07:35:00,
2013-04-30 03:05:00,71.0,60.3,29.52,SSE,159,15.0,42.0,69,0.05,,---,0.05,VWS V14.01,2013-04-30 08:05:00,
2013-04-30 03:35:00,71.0,59.5,29.53,SSE,151,12.0,42.0,67,0.00,,---,0.05,VWS V14.01,2013-04-30 08:35:00,
2013-04-30 04:05:00,71.5,58.3,29.53,ESE,106,9.0,45.0,63,0.00,,---,0.05,VWS V14.01,2013-04-30 09:05:00,
2013-04-30 04:35:00,70.9,57.2,29.52,SSW,208,15.0,45.0,62,0.00,,---,0.05,VWS V14.01,2013-04-30 09:35:00,
2013-04-30 05:05:00,70.7,56.6,29.53,SSE,155,12.0,45.0,61,0.00,,---,0.05,VWS V14.01,2013-04-30 10:05:00,
2013-04-30 05:35:00,70.4,55.9,29.54,SW,236,30.0,48.0,60,0.00,,---,0.05,VWS V14.01,2013-04-30 10:35:00,
2013-04-30 06:05:00,69.9,55.4,29.55,South,177,9.0,48.0,60,0.00,,---,0.05,VWS V14.01,2013-04-30 11:05:00,
2013-04-30 06:35:00,69.7,54.3,29.56,SSW,195,9.0,39.0,58,0.00,,---,0.05,VWS V14.01,2013-04-30 11:35:00,
2013-04-30 07:05:00,70.3,53.4,29.57,South,180,21.0,60.0,55,0.00,,---,0.05,VWS V14.01,2013-04-30 12:05:00,
2013-04-30 07:35:00,71.2,52.7,29.58,SSW,192,12.0,39.0,52,0.00,,---,0.05,VWS V14.01,2013-04-30 12:35:00,
2013-04-30 08:05:00,72.3,52.1,29.60,SSW,205,21.0,45.0,49,0.00,,---,0.05,VWS V14.01,2013-04-30 13:05:00,
2013-04-30 08:35:00,73.4,52.5,29.61,South,172,9.0,51.0,48,0.00,,---,0.05,VWS V14.01,2013-04-30 13:35:00,
2013-04-30 09:05:00,73.3,51.3,29.63,SW,231,12.0,42.0,46,0.00,,---,0.05,VWS V14.01,2013-04-30 14:05:00,
2013-04-30 09:35:00,75.7,52.3,29.62,West,261,18.0,39.0,44,0.00,,---,0.05,VWS V14.01,2013-04-30 14:35:00,
2013-04-30 10:05:00,76.0,53.2,29.62,SSW,198,15.0,57.0,45,0.00,,---,0.05,VWS V14.01,2013-04-30 15:05:00,
2013-04-30 10:35:00,77.0,54.1,29.63,SSW,194,33.0,66.0,45,0.00,,---,0.05,VWS V14.01,2013-04-30 15:35:00,
2013-04-30 11:05:00,78.5,56.0,29.62,WSW,253,27.0,60.0,46,0.00,,---,0.05,VWS V14.01,2013-04-30 16:05:00,
2013-04-30 11:35:00,80.2,58.2,29.63,SE,146,18.0,54.0,47,0.00,,---,0.05,VWS V14.01,2013-04-30 16:35:00,
2013-04-30 12:05:00,80.3,58.8,29.63,SW,236,21.0,54.0,48,0.00,,---,0.05,VWS V14.01,2013-04-30 17:05:00,
2013-04-30 12:35:00,81.1,59.0,29.63,SSW,200,9.0,54.0,47,0.00,,---,0.05,VWS V14.01,2013-04-30 17:35:00,
2013-04-30 13:05:00,81.9,59.7,29.63,West,279,18.0,42.0,47,0.00,,---,0.05,VWS V14.01,2013-04-30 18:05:00,
2013-04-30 13:35:00,83.3,61.0,29.62,SSW,200,3.0,51.0,47,0.00,,---,0.05,VWS V14.01,2013-04-30 18:35:00,
2013-04-30 14:05:00,83.6,61.8,29.62,SSW,212,6.0,42.0,48,0.00,,---,0.05,VWS V14.01,2013-04-30 19:05:00,
2013-04-30 14:35:00,84.2,61.2,29.62,SSE,166,9.0,48.0,46,0.00,,---,0.05,VWS V14.01,2013-04-30 19:35:00,
2013-04-30 15:05:00,83.5,61.2,29.63,SSW,203,18.0,48.0,47,0.00,,---,0.05,VWS V14.01,2013-04-30 20:05:00,
2013-04-30 15:35:00,84.1,61.1,29.62,SW,227,18.0,36.0,46,0.00,,---,0.05,VWS V14.01,2013-04-30 20:35:00,
2013-04-30 16:05:00,79.9,57.9,29.63,NNE,23,9.0,30.0,47,0.00,,---,0.05,VWS V14.01,2013-04-30 21:05:00,
2013-04-30 16:35:00,80.2,57.0,29.63,NNE,21,9.0,24.0,45,0.00,,---,0.05,VWS V14.01,2013-04-30 21:35:00,
2013-04-30 17:05:00,80.9,57.0,29.65,NW,323,6.0,18.0,44,0.00,,---,0.05,VWS V14.01,2013-04-30 22:05:00,
2013-04-30 17:35:00,80.7,56.8,29.65,NNE,32,0.0,15.0,44,0.00,,---,0.05,VWS V14.01,2013-04-30 22:35:00,
2013-04-30 18:05:00,81.3,56.7,29.66,North,5,3.0,15.0,43,0.00,,---,0.05,VWS V14.01,2013-04-30 23:05:00,
2013-04-30 18:35:00,79.4,56.8,29.67,NNE,26,6.0,18.0,46,0.00,,---,0.05,VWS V14.01,2013-04-30 23:35:00,
2013-04-30 19:05:00,78.3,57.0,29.67,NNE,13,3.0,15.0,48,0.00,,---,0.05,VWS V14.01,2013-05-01 00:05:00,
2013-04-30 19:35:00,76.2,55.1,29.69,North,5,12.0,33.0,48,0.00,,---,0.05,VWS V14.01,2013-05-01 00:35:00,
2013-04-30 20:05:00,74.4,54.6,29.69,NNE,17,3.0,18.0,50,0.00,,---,0.05,VWS V14.01,2013-05-01 01:05:00,
2013-04-30 20:35:00,73.3,55.2,29.70,WNW,283,3.0,12.0,53,0.00,,---,0.05,VWS V14.01,2013-05-01 01:35:00,
2013-04-30 21:05:00,72.0,54.0,29.74,NNE,23,9.0,36.0,53,0.00,,---,0.05,VWS V14.01,2013-05-01 02:05:00,
2013-04-30 21:35:00,69.0,51.2,29.77,North,5,15.0,33.0,53,0.00,,---,0.05,VWS V14.01,2013-05-01 02:35:00,
2013-04-30 22:05:00,67.9,49.1,29.78,NNE,13,12.0,36.0,51,0.00,,---,0.05,VWS V14.01,2013-05-01 03:05:00,
2013-04-30 22:35:00,64.4,48.8,29.80,North,9,12.0,42.0,57,0.00,,---,0.05,VWS V14.01,2013-05-01 03:35:00,
2013-04-30 23:05:00,61.3,47.3,29.81,NNE,22,15.0,39.0,60,0.00,,---,0.05,VWS V14.01,2013-05-01 04:05:00,
2013-04-30 23:35:00,60.3,48.1,29.80,NNE,28,15.0,30.0,64,0.00,,---,0.05,VWS V14.01,2013-05-01 04:35:00,